Location: Dompnac
(44.5644°N, 4.1026°E)
Time: 02:32:57
(UTC+00:00)

USA 234 - Pass Details

Date: 19 January 2021
Orbit: 1100 x 1107 km, 123.0° (Epoch: 01 March)

Event Time Altitude Azimuth Distance (km) Brightness Sun altitude
Exits shadow 17:37:26 13° 63° (ENE) 2,714 4.7 -11.1°
Maximum altitude 17:42:14 31° 8° (N) 1,820 4.2 -11.9°
Drops below altitude 10° 17:47:49 10° 310° (NW) 2,968 6.0 -12.9°
Sets 17:50:34 0° 300° (WNW) 3,928 6.9 -13.3°
